#datetime,building,power
2022-09-27T00:00:00,pkn,1.20
2022-09-27T00:02:00,pkn,1.20
2022-09-27T00:04:00,pkn,2.40
2022-09-27T00:07:00,pkn,2.40
2022-09-27T00:09:00,pkn,9.60
2022-09-27T00:11:00,pkn,10.80
2022-09-27T00:13:00,pkn,9.60
2022-09-27T00:15:00,pkn,10.80
2022-09-27T00:16:00,pkn,3.60
2022-09-27T00:18:00,pkn,9.60
2022-09-27T00:20:00,pkn,1.20
2022-09-27T00:21:00,pkn,1.20
2022-09-27T00:23:00,pkn,1.20
2022-09-27T00:24:00,pkn,1.20
2022-09-27T00:27:00,pkn,1.20
2022-09-27T00:29:00,pkn,1.20
2022-09-27T00:31:00,pkn,1.20
2022-09-27T00:33:00,pkn,1.20
2022-09-27T00:35:00,pkn,1.20
2022-09-27T00:36:00,pkn,1.20
2022-09-27T00:40:00,pkn,1.20
2022-09-27T00:41:00,pkn,1.20
2022-09-27T00:43:00,pkn,1.20
2022-09-27T00:45:00,pkn,4.80
2022-09-27T00:47:00,pkn,9.60
2022-09-27T00:48:00,pkn,1.20
2022-09-27T00:49:00,pkn,9.60
2022-09-27T00:50:00,pkn,3.60
2022-09-27T00:52:00,pkn,9.60
2022-09-27T00:55:00,pkn,1.20
2022-09-27T00:57:00,pkn,1.20
2022-09-27T00:59:00,pkn,1.20
2022-09-27T01:01:00,pkn,1.20
2022-09-27T01:03:00,pkn,1.20
2022-09-27T01:06:00,pkn,1.20
2022-09-27T01:08:00,pkn,1.20
2022-09-27T01:10:00,pkn,1.20
2022-09-27T01:11:00,pkn,1.20
2022-09-27T01:13:00,pkn,1.20
2022-09-27T01:15:00,pkn,1.20
2022-09-27T01:17:00,pkn,1.20
2022-09-27T01:19:00,pkn,1.20
2022-09-27T01:21:00,pkn,1.20
2022-09-27T01:23:00,pkn,1.20
2022-09-27T01:25:00,pkn,1.20
2022-09-27T01:27:00,pkn,1.20
2022-09-27T01:30:00,pkn,1.20
2022-09-27T01:32:00,pkn,1.20
2022-09-27T01:34:00,pkn,2.40
2022-09-27T01:35:00,pkn,1.20
2022-09-27T01:36:00,pkn,8.40
2022-09-27T01:38:00,pkn,10.80
2022-09-27T01:40:00,pkn,8.40
2022-09-27T01:42:00,pkn,7.20
2022-09-27T01:44:00,pkn,1.20
2022-09-27T01:46:00,pkn,1.20
2022-09-27T01:48:00,pkn,1.20
2022-09-27T01:50:00,pkn,1.20
2022-09-27T01:51:00,pkn,1.20
2022-09-27T01:53:00,pkn,1.20
2022-09-27T01:54:00,pkn,1.20
2022-09-27T01:57:00,pkn,1.20
2022-09-27T02:00:00,pkn,2.40
2022-09-27T02:02:00,pkn,1.20
2022-09-27T02:04:00,pkn,1.20
2022-09-27T02:06:00,pkn,1.20
2022-09-27T02:08:00,pkn,1.20
2022-09-27T02:12:00,pkn,1.20
2022-09-27T02:14:00,pkn,2.40
2022-09-27T02:16:00,pkn,1.20
2022-09-27T02:18:00,pkn,1.20
2022-09-27T02:20:00,pkn,1.20
2022-09-27T02:23:00,pkn,1.20
2022-09-27T02:25:00,pkn,1.20
2022-09-27T02:27:00,pkn,1.20
2022-09-27T02:28:00,pkn,1.20
2022-09-27T02:29:00,pkn,1.20
2022-09-27T02:31:00,pkn,1.20
2022-09-27T02:33:00,pkn,1.20
2022-09-27T02:35:00,pkn,1.20
2022-09-27T02:37:00,pkn,1.20
2022-09-27T02:40:00,pkn,1.20
2022-09-27T02:42:00,pkn,1.20
2022-09-27T02:43:00,pkn,1.20
2022-09-27T02:45:00,pkn,1.20
2022-09-27T02:47:00,pkn,1.20
2022-09-27T02:48:00,pkn,1.20
2022-09-27T02:51:00,pkn,1.20
2022-09-27T02:54:00,pkn,1.20
2022-09-27T02:55:00,pkn,4.80
2022-09-27T02:57:00,pkn,9.60
2022-09-27T02:58:00,pkn,3.60
2022-09-27T02:59:00,pkn,6.00
2022-09-27T03:01:00,pkn,3.60
2022-09-27T03:03:00,pkn,1.20
2022-09-27T03:05:00,pkn,1.20
2022-09-27T03:08:00,pkn,1.20
2022-09-27T03:09:00,pkn,1.20
2022-09-27T03:13:00,pkn,1.20
2022-09-27T03:14:00,pkn,1.20
2022-09-27T03:16:00,pkn,1.20
2022-09-27T03:19:00,pkn,2.40
2022-09-27T03:21:00,pkn,1.20
2022-09-27T03:23:00,pkn,1.20
2022-09-27T03:25:00,pkn,1.20
2022-09-27T03:26:00,pkn,1.20
2022-09-27T03:28:00,pkn,1.20
2022-09-27T03:31:00,pkn,1.20
2022-09-27T03:33:00,pkn,1.20
2022-09-27T03:34:00,pkn,1.20
2022-09-27T03:36:00,pkn,1.20
2022-09-27T03:38:00,pkn,1.20
2022-09-27T03:40:00,pkn,1.20
2022-09-27T03:42:00,pkn,1.20
2022-09-27T03:44:00,pkn,1.20
2022-09-27T03:46:00,pkn,1.20
2022-09-27T03:50:00,pkn,1.20
2022-09-27T03:52:00,pkn,1.20
2022-09-27T03:54:00,pkn,2.40
2022-09-27T03:56:00,pkn,1.20
2022-09-27T03:58:00,pkn,1.20
2022-09-27T04:01:00,pkn,1.20
2022-09-27T04:04:00,pkn,1.20
2022-09-27T04:06:00,pkn,1.20
2022-09-27T04:08:00,pkn,1.20
2022-09-27T04:10:00,pkn,1.20
2022-09-27T04:12:00,pkn,1.20
2022-09-27T04:15:00,pkn,1.20
2022-09-27T04:16:00,pkn,1.20
2022-09-27T04:18:00,pkn,1.20
2022-09-27T04:20:00,pkn,1.20
2022-09-27T04:22:00,pkn,1.20
2022-09-27T04:23:00,pkn,1.20
2022-09-27T04:25:00,pkn,1.20
2022-09-27T04:28:00,pkn,1.20
2022-09-27T04:29:00,pkn,1.20
2022-09-27T04:31:00,pkn,1.20
2022-09-27T04:33:00,pkn,1.20
2022-09-27T04:35:00,pkn,6.00
2022-09-27T04:36:00,pkn,4.80
2022-09-27T04:38:00,pkn,8.40
2022-09-27T04:39:00,pkn,6.00
2022-09-27T04:41:00,pkn,8.40
2022-09-27T04:44:00,pkn,2.40
2022-09-27T04:46:00,pkn,1.20
2022-09-27T04:48:00,pkn,1.20
2022-09-27T04:50:00,pkn,1.20
2022-09-27T04:53:00,pkn,1.20
2022-09-27T04:55:00,pkn,1.20
2022-09-27T04:56:00,pkn,1.20
2022-09-27T04:58:00,pkn,1.20
2022-09-27T05:01:00,pkn,1.20
2022-09-27T05:04:00,pkn,1.20
2022-09-27T05:06:00,pkn,2.40
2022-09-27T05:08:00,pkn,1.20
2022-09-27T05:12:00,pkn,1.20
2022-09-27T05:13:00,pkn,1.20
2022-09-27T05:15:00,pkn,1.20
2022-09-27T05:16:00,pkn,1.20
2022-09-27T05:19:00,pkn,1.20
2022-09-27T05:20:00,pkn,1.20
2022-09-27T05:24:00,pkn,1.20
2022-09-27T05:26:00,pkn,1.20
2022-09-27T05:28:00,pkn,1.20
2022-09-27T05:29:00,pkn,1.20
2022-09-27T05:31:00,pkn,1.20
2022-09-27T05:34:00,pkn,1.20
2022-09-27T05:36:00,pkn,1.20
2022-09-27T05:39:00,pkn,1.20
2022-09-27T05:42:00,pkn,1.20
2022-09-27T05:43:00,pkn,1.20
2022-09-27T05:45:00,pkn,1.20
2022-09-27T05:48:00,pkn,1.20
2022-09-27T05:50:00,pkn,1.20
2022-09-27T05:53:00,pkn,1.20
2022-09-27T05:55:00,pkn,1.20
2022-09-27T05:57:00,pkn,1.20
2022-09-27T05:59:00,pkn,1.20
2022-09-27T06:01:00,pkn,1.20
2022-09-27T06:03:00,pkn,1.20
2022-09-27T06:05:00,pkn,1.20
2022-09-27T06:07:00,pkn,1.20
2022-09-27T06:09:00,pkn,1.20
2022-09-27T06:11:00,pkn,1.20
2022-09-27T06:13:00,pkn,1.20
2022-09-27T06:15:00,pkn,1.20
2022-09-27T06:16:00,pkn,1.20
2022-09-27T06:18:00,pkn,1.20
2022-09-27T06:20:00,pkn,1.20
2022-09-27T06:22:00,pkn,1.20
2022-09-27T06:26:00,pkn,1.20
2022-09-27T06:27:00,pkn,1.20
2022-09-27T06:30:00,pkn,1.20
2022-09-27T06:33:00,pkn,1.20
2022-09-27T06:35:00,pkn,1.20
2022-09-27T06:36:00,pkn,1.20
2022-09-27T06:38:00,pkn,7.20
2022-09-27T06:40:00,pkn,10.80
2022-09-27T06:42:00,pkn,9.60
2022-09-27T06:44:00,pkn,4.80
2022-09-27T06:45:00,pkn,1.20
2022-09-27T06:47:00,pkn,1.20
2022-09-27T06:50:00,pkn,1.20
2022-09-27T06:52:00,pkn,2.40
2022-09-27T06:53:00,pkn,2.40
2022-09-27T06:55:00,pkn,1.20
2022-09-27T06:57:00,pkn,1.20
2022-09-27T06:59:00,pkn,1.20
2022-09-27T07:01:00,pkn,2.40
2022-09-27T07:03:00,pkn,1.20
2022-09-27T07:06:00,pkn,1.20
2022-09-27T07:07:00,pkn,1.20
2022-09-27T07:08:00,pkn,1.20
2022-09-27T07:10:00,pkn,1.20
2022-09-27T07:11:00,pkn,1.20
2022-09-27T07:14:00,pkn,2.40
2022-09-27T07:16:00,pkn,1.20
2022-09-27T07:18:00,pkn,1.20
2022-09-27T07:19:00,pkn,1.20
2022-09-27T07:21:00,pkn,1.20
2022-09-27T07:23:00,pkn,1.20
2022-09-27T07:24:00,pkn,1.20
2022-09-27T07:26:00,pkn,7.20
2022-09-27T07:27:00,pkn,4.80
2022-09-27T07:29:00,pkn,9.60
2022-09-27T07:30:00,pkn,4.80
2022-09-27T07:32:00,pkn,9.60
2022-09-27T07:33:00,pkn,2.40
2022-09-27T07:35:00,pkn,1.20
2022-09-27T07:36:00,pkn,1.20
2022-09-27T07:37:00,pkn,1.20
2022-09-27T07:38:00,pkn,1.20
2022-09-27T07:40:00,pkn,1.20
2022-09-27T07:43:00,pkn,1.20
2022-09-27T07:44:00,pkn,1.20
2022-09-27T07:46:00,pkn,1.20
2022-09-27T07:48:00,pkn,1.20
2022-09-27T07:50:00,pkn,2.40
2022-09-27T07:51:00,pkn,1.20
2022-09-27T07:53:00,pkn,1.20
2022-09-27T07:55:00,pkn,1.20
2022-09-27T07:57:00,pkn,1.20
2022-09-27T07:59:00,pkn,1.20
2022-09-27T08:01:00,pkn,1.20
2022-09-27T08:03:00,pkn,1.20
2022-09-27T08:04:00,pkn,3.60
2022-09-27T08:06:00,pkn,10.80
2022-09-27T08:07:00,pkn,4.80
2022-09-27T08:09:00,pkn,9.60
2022-09-27T08:11:00,pkn,8.40
2022-09-27T08:12:00,pkn,1.20
2022-09-27T08:15:00,pkn,1.20
2022-09-27T08:17:00,pkn,1.20
2022-09-27T08:19:00,pkn,1.20
2022-09-27T08:21:00,pkn,1.20
2022-09-27T08:23:00,pkn,1.20
2022-09-27T08:26:00,pkn,1.20
2022-09-27T08:28:00,pkn,1.20
2022-09-27T08:29:00,pkn,1.20
2022-09-27T08:32:00,pkn,1.20
2022-09-27T08:34:00,pkn,1.20
2022-09-27T08:35:00,pkn,1.20
2022-09-27T08:37:00,pkn,1.20
2022-09-27T08:39:00,pkn,1.20
2022-09-27T08:42:00,pkn,4.80
2022-09-27T08:43:00,pkn,4.80
2022-09-27T08:45:00,pkn,9.60
2022-09-27T08:46:00,pkn,3.60
2022-09-27T08:48:00,pkn,9.60
2022-09-27T08:50:00,pkn,10.80
2022-09-27T08:51:00,pkn,3.60
2022-09-27T08:52:00,pkn,4.80
2022-09-27T08:54:00,pkn,6.00
2022-09-27T08:56:00,pkn,1.20
2022-09-27T08:58:00,pkn,1.20
2022-09-27T08:59:00,pkn,1.20
2022-09-27T09:03:00,pkn,1.20
2022-09-27T09:05:00,pkn,1.20
2022-09-27T09:07:00,pkn,3.60
2022-09-27T09:08:00,pkn,4.80
2022-09-27T09:10:00,pkn,9.60
2022-09-27T09:12:00,pkn,9.60
2022-09-27T09:13:00,pkn,3.60
2022-09-27T09:15:00,pkn,9.60
2022-09-27T09:17:00,pkn,9.60
2022-09-27T09:19:00,pkn,8.40
2022-09-27T09:20:00,pkn,6.00
2022-09-27T09:22:00,pkn,9.60
2022-09-27T09:23:00,pkn,3.60
2022-09-27T09:24:00,pkn,4.80
2022-09-27T09:26:00,pkn,3.60
2022-09-27T09:28:00,pkn,2.40
2022-09-27T09:30:00,pkn,3.60
2022-09-27T09:32:00,pkn,3.60
2022-09-27T09:34:00,pkn,3.60
2022-09-27T09:36:00,pkn,3.60
2022-09-27T09:37:00,pkn,1.20
2022-09-27T09:38:00,pkn,2.40
2022-09-27T09:40:00,pkn,3.60
2022-09-27T09:42:00,pkn,3.60
2022-09-27T09:43:00,pkn,3.60
2022-09-27T09:44:00,pkn,2.40
2022-09-27T09:45:00,pkn,9.60
2022-09-27T09:46:00,pkn,6.00
2022-09-27T09:48:00,pkn,3.60
2022-09-27T09:49:00,pkn,8.40
2022-09-27T09:50:00,pkn,10.80
2022-09-27T09:52:00,pkn,6.00
2022-09-27T09:53:00,pkn,2.40
2022-09-27T09:54:00,pkn,1.20
2022-09-27T09:56:00,pkn,3.60
2022-09-27T09:59:00,pkn,1.20
2022-09-27T10:01:00,pkn,1.20
2022-09-27T10:05:00,pkn,1.20
2022-09-27T10:07:00,pkn,1.20
2022-09-27T10:09:00,pkn,1.20
2022-09-27T10:12:00,pkn,1.20
2022-09-27T10:16:00,pkn,8.40
2022-09-27T10:18:00,pkn,8.40
2022-09-27T10:19:00,pkn,6.00
2022-09-27T10:21:00,pkn,8.40
2022-09-27T10:23:00,pkn,4.80
2022-09-27T10:24:00,pkn,1.20
2022-09-27T10:26:00,pkn,1.20
2022-09-27T10:27:00,pkn,1.20
2022-09-27T10:30:00,pkn,1.20
2022-09-27T10:31:00,pkn,1.20
2022-09-27T10:35:00,pkn,8.40
2022-09-27T10:36:00,pkn,3.60
2022-09-27T10:38:00,pkn,9.60
2022-09-27T10:39:00,pkn,6.00
2022-09-27T10:41:00,pkn,7.20
2022-09-27T10:42:00,pkn,6.00
2022-09-27T10:44:00,pkn,8.40
2022-09-27T10:46:00,pkn,8.40
2022-09-27T10:47:00,pkn,4.80
2022-09-27T10:49:00,pkn,4.80
2022-09-27T10:53:00,pkn,1.20
2022-09-27T10:54:00,pkn,1.20
2022-09-27T10:57:00,pkn,1.20
2022-09-27T11:00:00,pkn,1.20
2022-09-27T11:02:00,pkn,4.80
2022-09-27T11:03:00,pkn,4.80
2022-09-27T11:05:00,pkn,9.60
2022-09-27T11:07:00,pkn,9.60
2022-09-27T11:09:00,pkn,8.40
2022-09-27T11:10:00,pkn,4.80
2022-09-27T11:12:00,pkn,8.40
2022-09-27T11:13:00,pkn,4.80
2022-09-27T11:15:00,pkn,8.40
2022-09-27T11:16:00,pkn,4.80
2022-09-27T11:18:00,pkn,1.20
2022-09-27T11:21:00,pkn,3.60
2022-09-27T11:23:00,pkn,1.20
2022-09-27T11:24:00,pkn,1.20
2022-09-27T11:25:00,pkn,1.20
2022-09-27T11:27:00,pkn,1.20
2022-09-27T11:28:00,pkn,1.20
2022-09-27T11:30:00,pkn,2.40
2022-09-27T11:32:00,pkn,6.00
2022-09-27T11:33:00,pkn,2.40
2022-09-27T11:35:00,pkn,10.80
2022-09-27T11:37:00,pkn,12.00
2022-09-27T11:39:00,pkn,12.00
2022-09-27T11:41:00,pkn,9.60
2022-09-27T11:42:00,pkn,2.40
2022-09-27T11:44:00,pkn,2.40
2022-09-27T11:46:00,pkn,2.40
2022-09-27T11:48:00,pkn,2.40
2022-09-27T11:49:00,pkn,1.20
2022-09-27T11:50:00,pkn,2.40
2022-09-27T11:52:00,pkn,2.40
2022-09-27T11:53:00,pkn,1.20
2022-09-27T11:55:00,pkn,2.40
2022-09-27T11:57:00,pkn,2.40
2022-09-27T11:59:00,pkn,2.40
2022-09-27T12:01:00,pkn,1.20
2022-09-27T12:02:00,pkn,1.20
2022-09-27T12:04:00,pkn,6.00
2022-09-27T12:06:00,pkn,9.60
2022-09-27T12:08:00,pkn,9.60
2022-09-27T12:09:00,pkn,3.60
2022-09-27T12:10:00,pkn,1.20
2022-09-27T12:11:00,pkn,8.40
2022-09-27T12:12:00,pkn,4.80
2022-09-27T12:14:00,pkn,3.60
2022-09-27T12:17:00,pkn,1.20
2022-09-27T12:18:00,pkn,1.20
2022-09-27T12:20:00,pkn,2.40
2022-09-27T12:22:00,pkn,2.40
2022-09-27T12:24:00,pkn,2.40
2022-09-27T12:26:00,pkn,4.80
2022-09-27T12:28:00,pkn,2.40
2022-09-27T12:32:00,pkn,1.20
2022-09-27T12:35:00,pkn,1.20
2022-09-27T12:37:00,pkn,2.40
2022-09-27T12:38:00,pkn,3.60
2022-09-27T12:40:00,pkn,9.60
2022-09-27T12:42:00,pkn,9.60
2022-09-27T12:44:00,pkn,8.40
2022-09-27T12:46:00,pkn,7.20
2022-09-27T12:48:00,pkn,1.20
2022-09-27T12:50:00,pkn,1.20
2022-09-27T12:54:00,pkn,1.20
2022-09-27T12:57:00,pkn,1.20
2022-09-27T12:59:00,pkn,1.20
2022-09-27T13:03:00,pkn,1.20
2022-09-27T13:06:00,pkn,1.20
2022-09-27T13:10:00,pkn,1.20
2022-09-27T13:13:00,pkn,1.20
2022-09-27T13:15:00,pkn,1.20
2022-09-27T13:19:00,pkn,4.80
2022-09-27T13:21:00,pkn,9.60
2022-09-27T13:22:00,pkn,4.80
2022-09-27T13:24:00,pkn,9.60
2022-09-27T13:26:00,pkn,4.80
2022-09-27T13:28:00,pkn,1.20
2022-09-27T13:29:00,pkn,1.20
2022-09-27T13:31:00,pkn,1.20
2022-09-27T13:33:00,pkn,1.20
2022-09-27T13:34:00,pkn,1.20
2022-09-27T13:37:00,pkn,1.20
2022-09-27T13:39:00,pkn,1.20
2022-09-27T13:40:00,pkn,1.20
2022-09-27T13:42:00,pkn,1.20
2022-09-27T13:43:00,pkn,1.20
2022-09-27T13:45:00,pkn,2.40
2022-09-27T13:47:00,pkn,2.40
2022-09-27T13:48:00,pkn,3.60
2022-09-27T13:50:00,pkn,10.80
2022-09-27T13:52:00,pkn,9.60
2022-09-27T13:54:00,pkn,9.60
2022-09-27T13:56:00,pkn,8.40
2022-09-27T13:58:00,pkn,1.20
2022-09-27T14:00:00,pkn,1.20
2022-09-27T14:02:00,pkn,1.20
2022-09-27T14:05:00,pkn,1.20
2022-09-27T14:07:00,pkn,1.20
2022-09-27T14:09:00,pkn,1.20
2022-09-27T14:10:00,pkn,1.20
2022-09-27T14:12:00,pkn,1.20
2022-09-27T14:14:00,pkn,1.20
2022-09-27T14:15:00,pkn,1.20
2022-09-27T14:17:00,pkn,1.20
2022-09-27T14:19:00,pkn,4.80
2022-09-27T14:21:00,pkn,1.20
2022-09-27T14:23:00,pkn,1.20
2022-09-27T14:25:00,pkn,2.40
2022-09-27T14:28:00,pkn,1.20
2022-09-27T14:30:00,pkn,8.40
2022-09-27T14:31:00,pkn,4.80
2022-09-27T14:32:00,pkn,3.60
2022-09-27T14:34:00,pkn,9.60
2022-09-27T14:36:00,pkn,10.80
2022-09-27T14:37:00,pkn,1.20
2022-09-27T14:39:00,pkn,1.20
2022-09-27T14:40:00,pkn,1.20
2022-09-27T14:42:00,pkn,1.20
2022-09-27T14:45:00,pkn,1.20
2022-09-27T14:46:00,pkn,1.20
2022-09-27T14:49:00,pkn,2.40
2022-09-27T14:52:00,pkn,1.20
2022-09-27T14:53:00,pkn,1.20
2022-09-27T14:55:00,pkn,1.20
2022-09-27T14:57:00,pkn,1.20
2022-09-27T15:00:00,pkn,1.20
2022-09-27T15:03:00,pkn,1.20
2022-09-27T15:07:00,pkn,1.20
2022-09-27T15:10:00,pkn,1.20
2022-09-27T15:13:00,pkn,1.20
2022-09-27T15:16:00,pkn,1.20
2022-09-27T15:18:00,pkn,1.20
2022-09-27T15:19:00,pkn,3.60
2022-09-27T15:20:00,pkn,4.80
2022-09-27T15:22:00,pkn,9.60
2022-09-27T15:23:00,pkn,3.60
2022-09-27T15:25:00,pkn,9.60
2022-09-27T15:27:00,pkn,4.80
2022-09-27T15:30:00,pkn,1.20
2022-09-27T15:31:00,pkn,1.20
2022-09-27T15:34:00,pkn,1.20
2022-09-27T15:38:00,pkn,1.20
2022-09-27T15:41:00,pkn,1.20
2022-09-27T15:43:00,pkn,1.20
2022-09-27T15:45:00,pkn,1.20
2022-09-27T15:47:00,pkn,1.20
2022-09-27T15:49:00,pkn,1.20
2022-09-27T15:53:00,pkn,1.20
2022-09-27T15:56:00,pkn,1.20
2022-09-27T15:59:00,pkn,1.20
2022-09-27T16:01:00,pkn,1.20
2022-09-27T16:03:00,pkn,1.20
2022-09-27T16:04:00,pkn,1.20
2022-09-27T16:06:00,pkn,1.20
2022-09-27T16:08:00,pkn,1.20
2022-09-27T16:11:00,pkn,1.20
2022-09-27T16:12:00,pkn,1.20
2022-09-27T16:14:00,pkn,1.20
2022-09-27T16:16:00,pkn,1.20
2022-09-27T16:19:00,pkn,1.20
2022-09-27T16:22:00,pkn,3.60
2022-09-27T16:24:00,pkn,9.60
2022-09-27T16:25:00,pkn,3.60
2022-09-27T16:27:00,pkn,9.60
2022-09-27T16:28:00,pkn,4.80
2022-09-27T16:30:00,pkn,3.60
2022-09-27T16:32:00,pkn,1.20
2022-09-27T16:36:00,pkn,1.20
2022-09-27T16:37:00,pkn,1.20
2022-09-27T16:39:00,pkn,1.20
2022-09-27T16:42:00,pkn,1.20
2022-09-27T16:46:00,pkn,1.20
2022-09-27T16:48:00,pkn,1.20
2022-09-27T16:49:00,pkn,1.20
2022-09-27T16:51:00,pkn,1.20
2022-09-27T16:53:00,pkn,1.20
2022-09-27T16:55:00,pkn,1.20
2022-09-27T16:57:00,pkn,1.20
2022-09-27T16:59:00,pkn,1.20
2022-09-27T17:01:00,pkn,1.20
2022-09-27T17:02:00,pkn,1.20
2022-09-27T17:04:00,pkn,1.20
2022-09-27T17:06:00,pkn,1.20
2022-09-27T17:08:00,pkn,1.20
2022-09-27T17:10:00,pkn,1.20
2022-09-27T17:13:00,pkn,1.20
2022-09-27T17:15:00,pkn,1.20
2022-09-27T17:17:00,pkn,1.20
2022-09-27T17:18:00,pkn,1.20
2022-09-27T17:20:00,pkn,1.20
2022-09-27T17:22:00,pkn,1.20
2022-09-27T17:23:00,pkn,1.20
2022-09-27T17:25:00,pkn,1.20
2022-09-27T17:27:00,pkn,2.40
2022-09-27T17:30:00,pkn,2.40
2022-09-27T17:32:00,pkn,1.20
2022-09-27T17:33:00,pkn,1.20
2022-09-27T17:35:00,pkn,1.20
2022-09-27T17:37:00,pkn,2.40
2022-09-27T17:39:00,pkn,1.20
2022-09-27T17:41:00,pkn,7.20
2022-09-27T17:43:00,pkn,8.40
2022-09-27T17:44:00,pkn,6.00
2022-09-27T17:45:00,pkn,3.60
2022-09-27T17:47:00,pkn,6.00
2022-09-27T17:49:00,pkn,1.20
2022-09-27T17:50:00,pkn,1.20
2022-09-27T17:52:00,pkn,1.20
2022-09-27T17:53:00,pkn,1.20
2022-09-27T17:56:00,pkn,2.40
2022-09-27T17:58:00,pkn,1.20
2022-09-27T17:59:00,pkn,1.20
2022-09-27T18:01:00,pkn,1.20
2022-09-27T18:02:00,pkn,1.20
2022-09-27T18:05:00,pkn,1.20
2022-09-27T18:07:00,pkn,1.20
2022-09-27T18:09:00,pkn,1.20
2022-09-27T18:11:00,pkn,1.20
2022-09-27T18:13:00,pkn,2.40
2022-09-27T18:15:00,pkn,1.20
2022-09-27T18:17:00,pkn,1.20
2022-09-27T18:19:00,pkn,1.20
2022-09-27T18:21:00,pkn,1.20
2022-09-27T18:22:00,pkn,1.20
2022-09-27T18:25:00,pkn,1.20
2022-09-27T18:26:00,pkn,1.20
2022-09-27T18:28:00,pkn,1.20
2022-09-27T18:30:00,pkn,1.20
2022-09-27T18:31:00,pkn,1.20
2022-09-27T18:34:00,pkn,1.20
2022-09-27T18:35:00,pkn,1.20
2022-09-27T18:37:00,pkn,2.40
2022-09-27T18:40:00,pkn,2.40
2022-09-27T18:43:00,pkn,4.80
2022-09-27T18:45:00,pkn,3.60
2022-09-27T18:46:00,pkn,2.40
2022-09-27T18:47:00,pkn,2.40
2022-09-27T18:49:00,pkn,7.20
2022-09-27T18:50:00,pkn,3.60
2022-09-27T18:52:00,pkn,4.80
2022-09-27T18:53:00,pkn,2.40
2022-09-27T18:54:00,pkn,3.60
2022-09-27T18:55:00,pkn,2.40
2022-09-27T18:57:00,pkn,4.80
2022-09-27T18:58:00,pkn,2.40
2022-09-27T19:00:00,pkn,3.60
2022-09-27T19:02:00,pkn,4.80
2022-09-27T19:04:00,pkn,3.60
2022-09-27T19:05:00,pkn,2.40
2022-09-27T19:07:00,pkn,4.80
2022-09-27T19:08:00,pkn,1.20
2022-09-27T19:10:00,pkn,13.20
2022-09-27T19:12:00,pkn,9.60
2022-09-27T19:14:00,pkn,10.80
2022-09-27T19:16:00,pkn,1.20
2022-09-27T19:18:00,pkn,2.40
2022-09-27T19:20:00,pkn,1.20
2022-09-27T19:21:00,pkn,1.20
2022-09-27T19:23:00,pkn,2.40
2022-09-27T19:25:00,pkn,1.20
2022-09-27T19:27:00,pkn,2.40
2022-09-27T19:29:00,pkn,1.20
2022-09-27T19:31:00,pkn,4.80
2022-09-27T19:33:00,pkn,3.60
2022-09-27T19:35:00,pkn,4.80
2022-09-27T19:36:00,pkn,2.40
2022-09-27T19:37:00,pkn,2.40
2022-09-27T19:38:00,pkn,1.20
2022-09-27T19:39:00,pkn,3.60
2022-09-27T19:41:00,pkn,7.20
2022-09-27T19:43:00,pkn,6.00
2022-09-27T19:44:00,pkn,3.60
2022-09-27T19:46:00,pkn,6.00
2022-09-27T19:48:00,pkn,3.60
2022-09-27T19:50:00,pkn,3.60
2022-09-27T19:52:00,pkn,2.40
2022-09-27T19:54:00,pkn,2.40
2022-09-27T19:56:00,pkn,2.40
2022-09-27T19:58:00,pkn,1.20
2022-09-27T20:00:00,pkn,1.20
2022-09-27T20:02:00,pkn,2.40
2022-09-27T20:05:00,pkn,2.40
2022-09-27T20:08:00,pkn,2.40
2022-09-27T20:10:00,pkn,1.20
2022-09-27T20:11:00,pkn,1.20
2022-09-27T20:13:00,pkn,1.20
2022-09-27T20:15:00,pkn,2.40
2022-09-27T20:17:00,pkn,1.20
2022-09-27T20:19:00,pkn,8.40
2022-09-27T20:20:00,pkn,3.60
2022-09-27T20:21:00,pkn,6.00
2022-09-27T20:22:00,pkn,4.80
2022-09-27T20:24:00,pkn,9.60
2022-09-27T20:26:00,pkn,4.80
2022-09-27T20:27:00,pkn,1.20
2022-09-27T20:30:00,pkn,1.20
2022-09-27T20:32:00,pkn,2.40
2022-09-27T20:35:00,pkn,2.40
2022-09-27T20:36:00,pkn,1.20
2022-09-27T20:38:00,pkn,10.80
2022-09-27T20:40:00,pkn,8.40
2022-09-27T20:42:00,pkn,9.60
2022-09-27T20:43:00,pkn,6.00
2022-09-27T20:45:00,pkn,8.40
2022-09-27T20:47:00,pkn,9.60
2022-09-27T20:50:00,pkn,2.40
2022-09-27T20:52:00,pkn,1.20
2022-09-27T20:54:00,pkn,1.20
2022-09-27T20:56:00,pkn,1.20
2022-09-27T20:58:00,pkn,1.20
2022-09-27T20:59:00,pkn,1.20
2022-09-27T21:00:00,pkn,1.20
2022-09-27T21:02:00,pkn,1.20
2022-09-27T21:03:00,pkn,1.20
2022-09-27T21:04:00,pkn,1.20
2022-09-27T21:06:00,pkn,2.40
2022-09-27T21:07:00,pkn,3.60
2022-09-27T21:08:00,pkn,3.60
2022-09-27T21:10:00,pkn,10.80
2022-09-27T21:11:00,pkn,6.00
2022-09-27T21:13:00,pkn,8.40
2022-09-27T21:15:00,pkn,10.80
2022-09-27T21:16:00,pkn,2.40
2022-09-27T21:18:00,pkn,2.40
2022-09-27T21:21:00,pkn,2.40
2022-09-27T21:23:00,pkn,1.20
2022-09-27T21:25:00,pkn,1.20
2022-09-27T21:27:00,pkn,2.40
2022-09-27T21:29:00,pkn,1.20
2022-09-27T21:31:00,pkn,1.20
2022-09-27T21:33:00,pkn,2.40
2022-09-27T21:35:00,pkn,1.20
2022-09-27T21:36:00,pkn,1.20
2022-09-27T21:37:00,pkn,1.20
2022-09-27T21:39:00,pkn,1.20
2022-09-27T21:41:00,pkn,1.20
2022-09-27T21:43:00,pkn,2.40
2022-09-27T21:44:00,pkn,1.20
2022-09-27T21:46:00,pkn,1.20
2022-09-27T21:48:00,pkn,6.00
2022-09-27T21:50:00,pkn,9.60
2022-09-27T21:52:00,pkn,10.80
2022-09-27T21:53:00,pkn,3.60
2022-09-27T21:55:00,pkn,9.60
2022-09-27T21:56:00,pkn,1.20
2022-09-27T21:57:00,pkn,1.20
2022-09-27T21:59:00,pkn,1.20
2022-09-27T22:00:00,pkn,1.20
2022-09-27T22:03:00,pkn,2.40
2022-09-27T22:05:00,pkn,1.20
2022-09-27T22:07:00,pkn,2.40
2022-09-27T22:09:00,pkn,1.20
2022-09-27T22:11:00,pkn,1.20
2022-09-27T22:13:00,pkn,1.20
2022-09-27T22:14:00,pkn,1.20
2022-09-27T22:16:00,pkn,1.20
2022-09-27T22:18:00,pkn,1.20
2022-09-27T22:20:00,pkn,1.20
2022-09-27T22:22:00,pkn,2.40
2022-09-27T22:25:00,pkn,1.20
2022-09-27T22:27:00,pkn,1.20
2022-09-27T22:28:00,pkn,1.20
2022-09-27T22:30:00,pkn,1.20
2022-09-27T22:31:00,pkn,1.20
2022-09-27T22:33:00,pkn,1.20
2022-09-27T22:35:00,pkn,1.20
2022-09-27T22:36:00,pkn,1.20
2022-09-27T22:38:00,pkn,1.20
2022-09-27T22:39:00,pkn,1.20
2022-09-27T22:42:00,pkn,1.20
2022-09-27T22:43:00,pkn,1.20
2022-09-27T22:45:00,pkn,1.20
2022-09-27T22:47:00,pkn,6.00
2022-09-27T22:49:00,pkn,9.60
2022-09-27T22:51:00,pkn,10.80
2022-09-27T22:53:00,pkn,9.60
2022-09-27T22:55:00,pkn,9.60
2022-09-27T22:56:00,pkn,4.80
2022-09-27T22:58:00,pkn,3.60
2022-09-27T23:00:00,pkn,1.20
2022-09-27T23:02:00,pkn,1.20
2022-09-27T23:03:00,pkn,1.20
2022-09-27T23:05:00,pkn,1.20
2022-09-27T23:07:00,pkn,1.20
2022-09-27T23:09:00,pkn,2.40
2022-09-27T23:11:00,pkn,1.20
2022-09-27T23:13:00,pkn,1.20
2022-09-27T23:15:00,pkn,2.40
2022-09-27T23:18:00,pkn,2.40
2022-09-27T23:19:00,pkn,6.00
2022-09-27T23:20:00,pkn,9.60
2022-09-27T23:22:00,pkn,9.60
2022-09-27T23:23:00,pkn,4.80
2022-09-27T23:24:00,pkn,4.80
2022-09-27T23:26:00,pkn,6.00
2022-09-27T23:27:00,pkn,1.20
2022-09-27T23:29:00,pkn,1.20
2022-09-27T23:31:00,pkn,2.40
2022-09-27T23:33:00,pkn,1.20
2022-09-27T23:35:00,pkn,2.40
2022-09-27T23:36:00,pkn,1.20
2022-09-27T23:38:00,pkn,1.20
2022-09-27T23:40:00,pkn,2.40
2022-09-27T23:42:00,pkn,1.20
2022-09-27T23:44:00,pkn,2.40
2022-09-27T23:46:00,pkn,9.60
2022-09-27T23:48:00,pkn,9.60
2022-09-27T23:50:00,pkn,9.60
2022-09-27T23:51:00,pkn,6.00
2022-09-27T23:52:00,pkn,4.80
2022-09-27T23:54:00,pkn,10.80
2022-09-27T23:55:00,pkn,4.80
2022-09-27T23:57:00,pkn,9.60
2022-09-27T23:58:00,pkn,4.80
